Redwood City, CA

5:36 PM PDT on September 30, 2016 (GMT -0700)
San Carlos

Weather History for KSQL - April, 2013

Change the Weather History Date:

Monday, April 29, 2013

  Actual Average Record
Temperature  
Mean Temperature 72 °F -  
Max Temperature 86 °F 72 °F 96 °F (1981)
Min Temperature 57 °F 46 °F 37 °F (1967)
Cooling Degree Days 6    
Growing Degree Days 22 (Base 50)    
Moisture  
Dew Point 49 °F    
Average Humidity 59    
Maximum Humidity 77    
Minimum Humidity 23    
Precipitation  
Precipitation 0.00 in - - ()
Sea Level Pressure  
Sea Level Pressure 29.86 in    
Wind  
Wind Speed 4 mph (NW)    
Max Wind Speed 18 mph    
Max Gust Speed 18 mph    
Visibility 10 miles    
Events      
Averages and records for this station are not official NWS values.
T = Trace of Precipitation, MM = Missing Value Source: NWS Daily Summary

Daily Weather History Graph

Daily Weather History Graph

Search for Another Location

Airport or City:

Trip Planner

Search our weather history database for the weather conditions in past years. The results will help you decide how hot, cold, wet, or windy it might be!

Date:

Astronomy

Apr. 29, 2013 Rise Set
Actual Time 6:15 AM PDT 7:57 PM PDT
Civil Twilight 5:47 AM PDT 8:25 PM PDT
Nautical Twilight 5:13 AM PDT 8:59 PM PDT
Astronomical Twilight 4:38 AM PDT 9:35 PM PDT
Moon No Moon Rise 9:44 AM PDT (4/29)
Length of Visible Light 14h 37m
Length of Day
13h 41m
Waning Gibbous, 79% of the Moon is Illuminated
Apr 29
Waning Gibbous
May 2
Last Quarter
May 9
New
May 17
First Quarter
May 24
Full

Hourly Weather History & Observations

Time (PDT) Temp. Dew Point Humidity Pressure Visibility Wind Dir Wind Speed Gust Speed Precip Events Conditions
12:15 AM 62.6 °F 50.0 °F 63% 29.90 in 10.0 mi Calm Calm - N/A   Clear
12:35 AM 62.6 °F 50.0 °F 63% 29.90 in 10.0 mi Calm Calm - N/A   Clear
12:55 AM 62.6 °F 51.8 °F 68% 29.90 in 10.0 mi Calm Calm - N/A   Clear
1:15 AM 60.8 °F 51.8 °F 72% 29.90 in 10.0 mi North 3.5 mph - N/A   Clear
1:35 AM 62.6 °F 51.8 °F 68% 29.90 in 10.0 mi NW 3.5 mph - N/A   Clear
1:55 AM 60.8 °F 51.8 °F 72% 29.89 in 10.0 mi NW 3.5 mph - N/A   Clear
2:15 AM 60.8 °F 50.0 °F 68% 29.88 in 10.0 mi Calm Calm - N/A   Clear
2:35 AM 59.0 °F 50.0 °F 72% 29.88 in 10.0 mi Calm Calm - N/A   Clear
2:55 AM 59.0 °F 50.0 °F 72% 29.88 in 10.0 mi NW 3.5 mph - N/A   Clear
3:15 AM 59.0 °F 50.0 °F 72% 29.90 in 10.0 mi North 6.9 mph - N/A   Clear
3:35 AM 59.0 °F 50.0 °F 72% 29.89 in 9.0 mi WNW 5.8 mph - N/A   Clear
3:55 AM 59.0 °F 50.0 °F 72% 29.89 in 10.0 mi SW 3.5 mph - N/A   Partly Cloudy
4:15 AM 59.0 °F 50.0 °F 72% 29.88 in 10.0 mi SE 3.5 mph - N/A   Clear
4:35 AM 59.0 °F 50.0 °F 72% 29.88 in 10.0 mi Calm Calm - N/A   Clear
4:55 AM 59.0 °F 50.0 °F 72% 29.87 in 10.0 mi Calm Calm - N/A   Clear
5:15 AM 59.0 °F 50.0 °F 72% 29.87 in 10.0 mi Calm Calm - N/A   Clear
5:35 AM 60.8 °F 53.6 °F 77% 29.88 in 10.0 mi Calm Calm - N/A   Clear
5:55 AM 59.0 °F 50.0 °F 72% 29.88 in 10.0 mi Calm Calm - N/A   Clear
6:15 AM 57.2 °F 50.0 °F 77% 29.88 in 10.0 mi SE 3.5 mph - N/A   Clear
6:35 AM 59.0 °F 51.8 °F 77% 29.89 in 10.0 mi Calm Calm - N/A   Clear
6:47 AM 59.0 °F 50.0 °F 72% 29.90 in 10.0 mi Calm Calm - N/A   Clear
6:55 AM 59.0 °F 50.0 °F 72% 29.90 in 10.0 mi Calm Calm - N/A   Clear
7:47 AM 62.6 °F 51.8 °F 68% 29.91 in 10.0 mi NW 3.5 mph - N/A   Clear
8:47 AM 64.4 °F 55.4 °F 73% 29.92 in 10.0 mi NE 3.5 mph - N/A   Clear
9:47 AM 68.0 °F 57.2 °F 68% 29.91 in 10.0 mi NNE 4.6 mph - N/A   Clear
10:47 AM 73.4 °F 57.2 °F 57% 29.91 in 10.0 mi NNE 6.9 mph - N/A   Clear
11:50 AM 80.6 °F 48.2 °F 32% 29.89 in 10.0 mi North 5.8 mph - N/A   Partly Cloudy
12:47 PM 84.2 °F 48.2 °F 29% 29.88 in 10.0 mi NNW 11.5 mph - N/A   Partly Cloudy
1:47 PM 86.0 °F 44.6 °F 23% 29.85 in 10.0 mi North 8.1 mph - N/A   Partly Cloudy
2:55 PM 86.0 °F 48.2 °F 27% 29.83 in 10.0 mi NNW 9.2 mph - N/A   Scattered Clouds
3:49 PM 84.2 °F 48.2 °F 29% 29.81 in 10.0 mi West 13.8 mph - N/A   Partly Cloudy
4:50 PM 84.2 °F 44.6 °F 25% 29.80 in 10.0 mi West 10.4 mph 18.4 mph N/A   Scattered Clouds
5:52 PM 75.2 °F 46.4 °F 36% 29.79 in 10.0 mi WNW 18.4 mph - N/A   Scattered Clouds
6:55 PM 68.0 °F 48.2 °F 49% 29.78 in 10.0 mi West 15.0 mph - N/A   Clear
7:55 PM 68.0 °F 48.2 °F 49% 29.79 in 10.0 mi WNW 11.5 mph - N/A   Partly Cloudy
8:55 PM 66.2 °F 46.4 °F 49% 29.80 in 10.0 mi West 16.1 mph - N/A   Clear
9:15 PM 66.2 °F 46.4 °F 49% 29.80 in 10.0 mi WNW 10.4 mph 16.1 mph N/A   Clear
9:35 PM 64.4 °F 46.4 °F 52% 29.81 in 10.0 mi WNW 9.2 mph - N/A   Clear
9:55 PM 64.4 °F 46.4 °F 52% 29.82 in 10.0 mi NW 11.5 mph - N/A   Clear
10:15 PM 64.4 °F 46.4 °F 52% 29.82 in 10.0 mi WNW 9.2 mph - N/A   Clear
10:35 PM 62.6 °F 46.4 °F 55% 29.82 in 10.0 mi WNW 9.2 mph - N/A   Clear
10:55 PM 62.6 °F 46.4 °F 55% 29.82 in 10.0 mi WNW 6.9 mph - N/A   Clear
11:15 PM 62.6 °F 46.4 °F 55% 29.82 in 10.0 mi WNW 6.9 mph - N/A   Clear
11:35 PM 60.8 °F 46.4 °F 59% 29.82 in 10.0 mi West 8.1 mph - N/A   Clear
11:55 PM 59.0 °F 44.6 °F 59% 29.82 in 10.0 mi WNW 6.9 mph - N/A   Clear